Temp
16 17 17 18 18 18 18 19 19 19 20 20 20 21 21 23 24 23 23 26 26 26 26 26 25 26 26 24 25 24 19 19 22 25 25 25 25 25 24 24 24 24 22 21 20
16 16 18 18 18 19 19 19 19 19 20 20 20 21 22 22 23 23 26 26 26 26 26 25 24 25 22 24 23 21 18 21 23 24 24 23 23 23 24 22 22 22 18 18 18
17 17 17 18 18 19 19 19 19 20 20 21 21 21 21 22 22 24 26 26 26 26 26 26 26 25 25 24 23 22 20 22 23 23 24 23 22 23 23 21 20 21 17 15 16
16 16 17 18 18 19 19 19 19 20 20 20 21 21 22 22 24 26 26 26 26 26 25 26 25 24 24 23 24 23 23 23 23 25 24 23 22 21 21 22 22 21 18 16 14
16 17 17 18 18 19 19 19 20 20 21 21 21 21 22 21 22 26 26 26 26 26 26 25 24 23 23 23 23 24 23 22 22 21 22 22 21 20 20 21 20 20 20 16 15
17 17 18 19 19 19 19 20 20 20 21 21 21 21 21 22 26 26 26 25 26 26 26 26 24 24 23 23 23 23 22 21 21 21 22 22 21 22 21 21 21 20 19 16 16
17 17 18 19 19 19 19 20 20 21 21 21 21 21 21 21 26 26 25 25 25 25 25 25 25 24 22 22 23 23 22 19 21 22 21 22 21 20 21 20 20 19 19 18 16
17 18 18 19 19 19 19 20 21 21 21 21 21 21 20 25 25 25 25 25 25 25 24 24 24 23 23 22 21 22 21 20 22 23 21 23 20 23 22 22 22 20 19 18 18
17 18 18 18 19 19 19 20 21 21 21 21 21 21 21 25 25 25 25 25 25 24 24 24 23 22 22 21 18 20 20 21 21 23 21 21 20 20 22 21 20 19 18 18 19
18 18 18 18 19 19 20 20 21 21 21 21 21 21 23 24 25 25 25 25 25 23 23 22 20 19 18 19 20 20 21 21 20 22 22 20 18 21 21 21 20 19 18 18 19
18 18 18 18 19 19 20 21 20 20 20 20 21 22 24 24 24 24 24 24 24 23 21 21 19 19 20 21 22 22 21 19 19 21 21 20 19 20 21 21 19 18 18 18 19
18 18 18 18 19 19 19 18 21 21 20 21 22 23 24 24 24 23 25 23 22 20 21 20 19 20 23 23 22 22 21 19 19 22 21 19 19 20 21 22 19 19 20 19 18
17 18 18 19 19 20 19 21 21 21 19 23 22 23 23 24 23 23 23 22 22 21 21 19 21 22 23 22 21 21 20 20 20 18 19 19 18 20 22 20 20 20 20 19 19
18 18 18 19 19 20 20 21 21 21 19 22 22 22 23 23 22 23 24 23 23 21 21 21 22 23 23 22 22 20 21 20 20 17 17 19 17 19 21 21 20 19 17 17 16
18 18 19 19 19 20 21 21 21 21 18 22 21 23 22 22 22 22 22 22 21 21 21 21 22 22 22 21 22 20 20 19 20 18 17 18 16 18 20 20 21 20 17 16 15
18 18 18 18 19 20 20 21 20 17 18 22 21 21 21 22 22 21 21 22 22 21 21 19 21 21 21 21 21 20 20 18 18 16 16 18 19 20 21 20 21 18 16 16 15
18 18 18 18 19 19 20 19 17 17 23 21 21 21 21 21 21 21 20 19 19 20 20 22 20 20 21 20 20 19 17 16 18 16 18 19 19 19 22 20 19 17 16 16 15
17 18 18 19 19 19 20 16 18 20 22 23 23 22 21 22 21 21 21 19 19 21 19 20 20 20 20 21 20 19 18 16 19 17 18 18 18 21 22 19 18 17 16 16 16
17 18 17 19 19 19 15 15 17 20 23 22 22 21 21 22 23 21 19 20 21 21 20 20 21 19 19 20 20 20 18 18 18 17 16 17 19 21 20 21 20 17 17 16 16
17 18 18 18 19 19 15 16 19 23 22 23 21 20 20 20 20 20 21 22 20 21 20 21 20 20 18 19 18 19 18 18 15 17 17 16 19 19 21 21 18 19 19 17 18
17 15 16 17 19 13 14 16 21 22 22 22 22 22 23 21 20 21 23 21 21 20 20 21 18 19 19 17 17 16 17 18 16 14 15 14 15 17 20 19 18 17 17 16 17
15 15 16 17 14 12 14 19 20 21 21 21 21 21 22 22 22 22 22 21 20 19 20 19 16 17 18 18 18 17 18 16 15 17 14 13 15 20 18 17 17 16 16 15 16
13 13 15 16 13 13 17 20 20 21 20 20 20 20 21 22 21 21 18 19 19 20 19 19 16 15 17 18 18 19 19 18 16 14 14 15 15 18 18 18 16 15 15 14 14
13 14 12 12 12 16 17 18 19 19 20 20 20 21 20 20 21 21 18 18 18 18 17 17 16 16 15 18 17 17 18 18 16 14 15 16 18 19 17 17 17 15 14 13 13
11 13 14 12 13 15 17 18 18 18 18 19 20 19 19 18 19 19 19 17 17 15 17 16 15 16 16 16 16 16 16 16 15 16 15 17 16 17 17 17 16 14 13 13 13
12 13 13 14 16 14 14 16 19 19 17 18 18 19 17 18 19 19 19 16 17 15 15 14 15 16 15 16 15 15 15 15 15 16 16 16 16 16 16 15 14 13 13 13 12
13 13 13 14 15 14 14 16 18 19 19 19 18 17 18 17 16 16 16 16 16 15 14 13 13 14 13 15 14 14 15 16 16 16 16 16 16 15 14 14 14 13 12 12 11
Height
823 825 824 826 826 826 826 825 826 826 825 824 823 821 819 819 817 817 815 814 813 812 812 812 813 813 812 812 811 813 844 851 837 825 819 804 806 799 796 799 798 795 797 796 801
822 823 823 825 825 825 825 824 825 825 825 824 822 821 819 818 816 815 812 811 811 811 811 812 813 813 817 814 814 826 847 837 818 813 815 807 808 805 804 804 802 799 800 798 800
819 821 822 823 823 823 824 824 823 824 824 823 822 820 819 818 817 810 809 811 811 810 811 810 809 812 816 813 816 819 835 820 813 809 804 806 808 802 804 806 800 799 802 801 801
817 819 822 822 822 821 823 823 822 822 823 822 821 819 818 819 829 808 809 810 809 810 810 809 809 817 821 822 811 820 813 811 808 802 804 807 803 806 803 793 788 788 790 796 799
816 818 821 820 819 820 822 822 821 822 821 821 820 817 817 820 815 808 809 810 809 809 809 809 811 816 825 817 814 814 811 808 805 804 803 801 805 806 796 783 782 783 786 791 791
815 816 818 817 818 820 821 822 820 820 820 820 819 818 817 825 808 808 808 809 809 808 808 809 811 810 817 816 817 811 809 809 803 799 799 801 803 800 785 779 780 780 780 782 784
812 814 814 815 818 820 821 820 819 819 819 819 818 818 817 814 807 807 807 808 808 808 808 809 808 811 813 816 808 808 816 812 800 796 801 796 806 803 782 780 781 779 776 774 773
811 812 814 815 818 820 819 817 817 817 816 817 816 816 817 807 806 806 807 807 807 808 808 808 808 809 812 809 812 816 817 828 802 796 799 797 809 785 779 780 776 775 770 767 765
810 812 815 815 816 819 817 815 814 816 814 815 815 815 817 806 805 804 806 807 806 807 808 808 808 812 813 825 835 825 835 825 818 797 802 804 802 786 779 780 780 774 770 766 764
809 813 816 814 814 816 814 813 812 813 812 814 813 820 809 807 803 804 804 805 807 807 810 810 815 824 829 834 845 834 830 824 825 804 799 807 803 784 779 779 778 778 773 769 765
810 811 811 812 813 813 813 811 814 815 813 808 806 805 802 803 804 803 803 804 806 810 822 815 829 835 824 820 816 818 822 829 818 803 804 805 803 786 777 777 782 779 776 772 766
808 809 811 811 811 811 812 812 810 812 814 799 799 800 800 802 806 802 803 808 812 824 817 825 832 815 807 808 814 814 822 828 814 801 804 804 797 783 774 774 778 778 775 772 769
807 807 808 809 808 809 810 809 808 809 813 797 794 796 800 802 805 802 802 805 810 820 820 830 813 804 807 811 817 816 821 820 822 814 805 805 804 792 778 778 776 774 774 773 772
804 804 807 807 811 807 807 807 806 806 823 807 800 799 799 800 806 797 799 803 806 818 815 816 803 805 808 813 812 824 812 814 818 827 834 811 835 803 788 786 783 783 780 780 778
803 804 805 806 805 805 806 806 805 807 848 803 802 796 796 803 802 803 799 800 812 813 815 816 809 809 813 812 807 816 810 816 816 825 828 823 835 808 790 794 788 786 784 783 780
801 802 804 804 805 807 805 804 808 834 840 806 800 803 806 801 801 801 801 801 803 809 808 811 800 804 809 806 806 809 813 821 821 833 844 822 823 807 795 790 786 787 784 782 780
798 801 803 803 803 805 804 804 834 841 793 808 804 802 805 807 804 804 809 814 821 823 820 805 808 806 805 813 810 814 829 845 839 847 839 814 821 805 782 781 782 786 783 782 780
796 798 798 801 802 802 802 819 835 809 799 791 793 798 809 799 803 804 806 816 809 806 821 824 823 811 807 808 813 818 827 846 841 846 837 819 825 798 776 779 777 778 783 783 781
795 796 796 797 800 801 809 833 822 803 786 796 796 806 808 797 799 802 810 809 799 799 821 821 814 808 807 805 809 816 828 819 832 833 844 827 804 786 784 779 782 789 785 783 781
793 794 794 796 798 800 816 821 806 785 785 788 805 801 809 806 807 809 804 795 801 798 799 807 822 808 811 810 812 813 816 831 841 842 842 831 813 810 791 784 789 784 782 782 779
792 795 793 795 796 805 821 815 793 784 784 791 794 795 794 801 803 803 796 797 794 800 798 802 817 818 813 818 820 826 825 823 832 841 848 852 832 792 785 786 789 786 784 783 781
791 800 793 794 807 809 812 797 788 788 788 790 791 793 793 792 796 796 797 796 794 797 805 803 820 828 819 807 804 808 814 821 840 833 839 845 825 776 783 783 783 785 783 782 780
793 793 793 793 811 809 798 790 788 789 791 792 794 791 787 792 801 795 802 797 795 797 802 805 822 836 826 816 808 807 807 808 817 828 837 842 820 778 775 776 783 784 783 783 780
791 798 797 796 798 797 798 794 793 786 788 786 789 787 790 795 791 795 803 800 798 800 803 803 817 824 834 817 813 816 808 806 817 832 823 810 797 786 788 786 784 785 783 781 779
790 791 786 803 798 794 789 789 791 793 787 785 790 789 793 801 797 798 796 803 800 803 803 809 822 817 815 813 812 811 807 809 815 811 819 789 803 787 786 783 784 786 783 781 779
787 787 786 787 781 789 793 791 783 782 788 791 793 787 791 797 793 794 793 802 800 807 809 810 820 814 817 810 811 811 800 803 802 798 799 792 791 783 783 783 785 786 783 780 778
781 780 780 781 781 788 789 783 778 779 778 777 782 787 789 790 790 790 791 793 796 803 810 815 821 824 827 813 813 813 794 792 790 787 787 796 790 787 788 786 784 783 780 779 777
Wind_Speed
5 6 6 7 7 7 7 4 4 7 8 10 11 11 12 13 8 4 4 3 4 4 1 1 4 7 4 2 1 3 3 3 6 3 5 3 3 1 1 3 2 4 4 5 28
6 6 6 8 8 7 7 4 5 7 8 10 11 12 12 13 7 8 7 4 2 1 2 2 4 9 3 3 1 4 3 6 5 3 5 6 4 4 2 4 5 1 4 20 37
5 7 7 8 8 7 7 5 5 7 9 9 12 13 11 10 2 6 11 6 2 1 1 6 8 4 3 1 5 5 6 6 10 9 3 3 8 3 5 8 7 8 10 10 19
6 7 8 9 7 6 6 6 6 7 9 10 12 12 13 3 2 3 10 5 2 1 2 4 3 2 3 4 4 4 6 6 7 4 3 3 3 7 7 16 6 10 12 16 11
7 7 8 8 7 6 6 6 7 9 9 11 12 13 5 1 7 7 5 3 2 2 3 2 3 2 3 4 5 4 5 6 10 8 6 3 10 6 13 17 12 9 7 17 16
6 7 7 6 6 6 6 7 7 9 10 10 11 11 2 3 4 6 4 2 1 2 5 2 1 3 5 4 2 4 4 8 8 13 6 7 5 2 12 6 8 7 12 12 17
5 6 5 5 6 7 7 7 8 10 10 11 11 7 1 11 6 5 6 4 3 1 2 2 2 2 3 6 4 3 7 8 6 4 6 2 4 9 16 9 10 11 11 9 18
5 5 5 5 6 8 8 8 9 10 11 11 7 0 5 5 10 8 6 5 2 0 1 2 2 2 2 3 7 2 1 4 6 4 1 3 9 7 9 6 13 10 11 10 12
5 5 6 5 6 8 9 9 10 12 11 6 1 3 6 3 5 8 8 3 7 2 1 2 1 3 2 1 5 3 3 4 9 4 2 3 12 6 5 9 10 10 8 5 7
5 6 7 5 6 8 9 10 10 11 3 2 3 3 5 3 4 5 5 4 2 2 1 1 1 1 3 3 4 4 3 4 5 5 4 5 16 15 7 4 7 6 8 8 8
7 6 4 4 5 7 8 3 3 2 3 8 7 5 3 4 5 6 4 3 1 1 3 3 2 6 7 6 5 4 3 6 6 5 4 6 10 18 12 3 7 8 8 9 9
5 5 5 4 5 6 6 2 3 2 5 14 12 5 3 4 2 3 9 4 4 5 2 4 7 10 6 2 4 4 4 8 7 1 4 8 15 12 2 6 7 8 6 7 8
5 4 4 4 5 7 9 6 3 3 1 4 3 5 3 6 5 5 9 5 4 4 7 6 6 6 3 2 3 3 4 4 6 6 5 6 7 6 4 6 6 5 5 5 7
5 4 5 3 4 3 4 6 4 2 1 3 2 2 3 4 3 2 5 3 2 7 5 6 3 4 1 3 2 4 0 1 4 6 2 5 4 4 1 4 5 5 8 8 9
6 6 5 5 5 2 3 3 2 2 2 3 4 3 4 6 4 2 1 3 4 4 5 6 4 2 3 4 1 6 2 3 2 1 4 4 3 6 5 4 3 2 8 8 7
6 7 6 5 6 5 4 3 2 5 6 2 4 4 3 2 2 2 2 1 2 2 3 8 1 3 4 1 2 4 4 4 2 3 3 4 3 5 4 7 4 3 6 6 7
6 9 11 6 3 6 6 3 4 3 1 4 4 5 5 6 4 5 4 3 4 1 2 3 4 2 2 2 4 4 4 4 3 3 4 1 1 8 5 5 7 8 6 6 6
5 9 8 8 7 6 4 4 3 5 3 3 4 4 5 6 5 7 2 3 7 2 1 2 4 5 4 2 3 3 5 4 3 2 3 3 5 4 1 8 8 7 7 5 5
3 6 3 10 8 9 5 2 6 5 2 6 3 3 4 3 3 4 7 4 2 6 6 1 1 2 3 2 3 1 1 4 1 3 3 4 6 6 5 2 6 6 4 5 6
3 6 4 8 10 6 4 5 5 1 2 2 6 7 7 6 5 6 5 1 5 2 2 1 2 1 0 2 3 1 1 3 2 2 3 5 4 5 4 2 6 1 2 5 1
2 2 4 8 9 4 4 6 4 1 1 2 2 3 3 5 7 5 2 2 3 2 3 2 3 3 2 5 7 1 2 1 2 4 4 2 6 6 6 5 5 2 3 6 1
1 1 6 11 3 2 3 5 3 4 2 1 0 2 2 1 4 3 5 2 1 5 4 1 4 3 8 3 2 5 6 5 4 5 2 4 7 6 5 7 6 4 5 4 4
2 2 3 2 4 3 5 4 2 2 3 4 4 5 2 2 2 5 4 1 2 2 4 3 0 2 8 3 3 1 3 3 3 3 6 3 6 2 13 16 7 6 5 5 6
2 1 2 2 2 5 5 5 5 4 3 4 4 3 3 2 3 2 3 3 2 3 4 3 2 6 6 5 2 5 5 3 5 3 4 15 18 19 10 10 3 4 5 6 7
1 4 4 4 4 5 1 3 8 7 4 3 3 6 6 5 3 5 4 3 2 2 2 4 4 3 6 7 4 6 13 7 8 10 8 21 11 17 10 1 2 4 7 8 8
3 3 1 2 4 9 7 5 4 3 7 5 5 7 7 6 6 1 4 5 5 2 6 1 3 1 3 9 8 10 14 9 11 15 11 15 16 4 3 3 5 5 7 7 5
4 2 3 3 4 6 6 6 8 5 5 5 10 6 4 5 4 4 4 2 5 7 6 6 4 2 4 4 7 9 7 4 4 4 5 5 4 4 5 6 5 6 7 5 7
Wind_Direction
230 245 264 271 280 281 277 255 292 314 320 326 330 331 339 330 319 286 256 239 241 272 290 165 256 248 250 280 141 65 48 253 255 273 273 320 28 359 192 167 229 208 171 188 161
238 248 266 271 276 274 267 257 286 312 320 325 331 329 337 335 326 254 241 224 264 247 153 277 285 245 294 236 210 112 140 239 221 275 279 301 19 327 246 255 252 317 42 143 155
228 253 260 263 268 263 253 267 291 311 319 325 332 329 335 336 342 244 206 201 204 203 221 308 296 319 247 212 222 200 205 233 279 287 240 295 322 295 295 269 216 214 188 174 165
235 252 259 258 254 244 241 269 296 311 317 327 331 331 328 304 221 205 178 186 156 61 317 302 338 293 254 248 261 209 235 242 263 287 312 285 276 290 238 259 267 234 181 174 178
239 241 250 251 242 226 246 271 298 309 317 327 332 334 355 12 252 185 177 186 164 56 279 349 357 341 282 305 348 245 251 276 277 283 261 242 252 247 268 265 262 260 183 189 194
230 239 239 240 224 229 249 276 296 307 313 323 328 334 27 276 202 181 177 197 178 269 305 240 167 252 267 272 248 290 287 279 279 267 248 223 270 147 273 273 287 271 257 196 195
238 244 237 231 226 247 261 280 292 302 307 315 320 333 308 239 235 214 179 224 185 306 355 26 23 68 324 303 294 290 320 316 277 283 208 84 292 234 251 292 269 274 256 225 208
237 226 224 219 240 258 269 280 293 297 303 308 307 333 250 263 197 204 190 209 181 29 326 325 356 245 206 301 333 265 64 334 296 112 237 100 278 254 273 318 310 270 259 242 213
230 229 229 222 245 262 281 287 297 296 301 288 262 160 269 226 199 226 207 235 168 165 221 284 359 215 349 30 344 4 266 278 325 270 90 181 280 252 300 304 307 319 336 315 290
218 220 225 233 257 274 291 300 293 296 311 233 239 14 266 227 160 155 197 199 202 192 292 80 79 9 2 87 258 291 305 295 281 298 243 264 269 289 275 297 303 348 16 22 5
203 214 230 245 268 289 314 330 9 350 221 197 187 198 126 129 170 195 166 134 260 262 224 230 95 235 237 221 223 235 267 286 261 255 302 253 282 291 304 303 66 50 34 14 1
207 219 236 251 274 287 294 215 207 189 297 234 237 252 186 168 212 226 170 162 158 217 229 326 236 237 226 256 303 304 299 284 292 71 334 310 293 292 209 128 127 99 57 30 12
222 231 254 265 288 273 228 231 235 203 254 281 208 180 176 172 221 230 157 188 198 239 253 199 241 163 205 301 316 286 236 267 272 329 303 343 320 353 24 100 89 62 62 35 35
241 237 248 266 280 246 213 235 226 166 342 253 188 230 139 148 253 145 169 162 241 227 235 233 231 169 186 268 215 281 273 333 352 25 298 71 283 319 247 90 67 56 55 47 37
249 235 239 222 312 345 164 212 168 162 343 167 152 153 176 156 155 215 106 78 220 245 77 256 172 162 254 236 131 239 301 254 174 279 32 332 71 264 161 102 168 73 62 64 52
248 230 221 237 245 221 213 162 205 56 248 140 133 166 133 222 213 119 78 74 242 274 235 230 105 155 208 241 192 348 334 14 78 79 358 245 132 287 205 160 190 112 90 85 69
249 219 205 190 194 194 175 85 56 168 262 175 181 158 209 187 215 163 170 186 201 138 294 333 185 120 139 47 14 53 43 346 353 360 229 268 20 242 213 178 138 140 139 109 94
244 214 209 204 208 176 117 58 189 237 178 189 137 172 190 156 225 193 193 237 228 190 325 210 296 171 172 189 183 225 143 146 254 246 262 299 245 268 14 134 149 134 120 111 108
204 189 198 215 210 172 81 113 212 226 137 144 78 166 223 193 154 157 206 210 164 158 174 6 292 25 48 47 109 264 149 173 166 318 80 252 291 36 68 82 75 88 133 160 174
177 178 202 179 177 135 86 227 227 100 106 101 172 176 207 198 163 168 201 242 142 112 128 233 317 227 253 61 24 152 237 48 15 267 285 292 282 227 31 327 78 118 185 200 119
219 70 159 170 151 63 180 226 288 35 144 181 236 260 215 176 190 187 250 345 119 135 102 155 114 287 101 205 184 92 259 156 145 152 197 279 262 203 136 125 140 171 96 121 55
66 83 155 164 95 185 195 196 281 178 83 10 137 243 228 308 199 197 208 182 73 147 140 176 139 249 232 284 218 176 175 149 132 269 218 174 264 263 110 73 100 76 51 40 21
161 186 143 148 164 233 265 201 218 205 184 186 240 224 75 221 214 222 114 233 92 123 151 156 136 14 330 341 346 165 205 174 141 126 189 208 257 259 9 354 24 55 34 5 349
103 142 340 67 227 173 206 230 215 222 227 207 218 175 150 247 233 236 140 212 160 102 116 94 171 180 200 225 196 273 249 218 170 210 225 233 272 289 301 313 325 353 348 349 347
143 230 184 206 252 190 175 237 202 199 218 188 243 193 174 213 233 225 164 131 34 137 109 122 200 239 257 265 265 255 267 235 214 238 234 276 259 281 291 319 14 341 340 336 322
184 160 14 235 186 179 189 232 217 201 150 222 210 211 206 204 200 141 189 165 188 181 163 137 242 278 273 278 276 276 273 255 248 245 246 263 281 320 79 43 359 327 301 310 333
230 210 117 240 185 142 204 196 225 198 239 197 201 192 227 204 144 156 115 130 145 152 183 152 159 93 270 321 338 297 250 209 209 208 188 233 257 8 354 355 324 309 325 324 306